Time,TemperatureF,DewpointF,PressureIn,WindDirection,WindDirectionDegrees,WindSpeedMPH,WindSpeedGustMPH,Humidity,HourlyPrecipIn,Conditions,Clouds,dailyrainin,SoftwareType,DateUTC
2013-07-25 00:02:00,57.9,45.0,29.18,SSE,167,3.1,3.1,62,0.00,,---,0.00,VWS V12.08,2013-07-25 05:02:00,
2013-07-25 00:17:00,57.9,45.8,29.18,SSE,167,2.7,3.6,64,0.00,,---,0.00,VWS V12.08,2013-07-25 05:17:00,
2013-07-25 00:32:00,57.7,45.2,29.18,South,188,4.0,4.0,63,0.00,,---,0.00,VWS V12.08,2013-07-25 05:32:00,
2013-07-25 00:47:00,57.7,46.5,29.18,South,189,3.6,4.0,66,0.00,,---,0.00,VWS V12.08,2013-07-25 05:47:00,
2013-07-25 01:02:00,57.7,46.9,29.18,South,189,4.0,4.0,67,0.00,,---,0.00,VWS V12.08,2013-07-25 06:02:00,
2013-07-25 01:17:00,57.6,45.9,29.18,South,190,3.6,4.0,65,0.00,,---,0.00,VWS V12.08,2013-07-25 06:17:00,
2013-07-25 01:32:00,57.2,45.6,29.18,South,170,3.1,3.6,65,0.00,,---,0.00,VWS V12.08,2013-07-25 06:32:00,
2013-07-25 01:46:00,56.8,46.0,29.18,South,170,2.7,3.1,67,0.00,,---,0.00,VWS V12.08,2013-07-25 06:46:00,
2013-07-25 02:01:00,56.7,46.6,29.18,South,171,2.7,2.7,69,0.00,,---,0.00,VWS V12.08,2013-07-25 07:01:00,
2013-07-25 02:16:00,56.3,47.0,29.18,South,170,0.0,4.0,71,0.00,,---,0.00,VWS V12.08,2013-07-25 07:16:00,
2013-07-25 02:31:00,56.3,47.4,29.18,South,170,2.7,3.1,72,0.00,,---,0.00,VWS V12.08,2013-07-25 07:31:00,
2013-07-25 02:46:00,56.1,47.2,29.18,South,170,2.7,3.6,72,0.00,,---,0.00,VWS V12.08,2013-07-25 07:46:00,
2013-07-25 03:01:00,55.6,46.7,29.18,South,170,0.0,2.7,72,0.00,,---,0.00,VWS V12.08,2013-07-25 08:01:00,
2013-07-25 03:16:00,55.6,47.4,29.18,South,170,0.0,0.0,74,0.00,,---,0.00,VWS V12.08,2013-07-25 08:16:00,
2013-07-25 03:31:00,55.2,47.1,29.18,South,170,0.0,0.0,74,0.00,,---,0.00,VWS V12.08,2013-07-25 08:31:00,
2013-07-25 03:46:00,55.2,47.5,29.18,South,170,0.0,0.0,75,0.00,,---,0.00,VWS V12.08,2013-07-25 08:46:00,
2013-07-25 04:02:00,54.9,47.1,29.18,South,170,0.0,0.0,75,0.00,,---,0.00,VWS V12.08,2013-07-25 09:02:00,
2013-07-25 04:17:00,54.5,46.8,29.18,South,170,0.0,0.0,75,0.00,,---,0.00,VWS V12.08,2013-07-25 09:17:00,
2013-07-25 04:31:00,54.7,46.9,29.21,South,171,0.0,0.0,75,0.00,,---,0.00,VWS V12.08,2013-07-25 09:31:00,
2013-07-25 04:47:00,54.3,46.9,29.21,South,170,0.0,0.0,76,0.00,,---,0.00,VWS V12.08,2013-07-25 09:47:00,
2013-07-25 05:01:00,54.7,48.0,29.21,South,170,3.1,3.6,78,0.00,,---,0.00,VWS V12.08,2013-07-25 10:01:00,
2013-07-25 05:16:00,54.7,48.3,29.21,South,171,2.7,4.0,79,0.00,,---,0.00,VWS V12.08,2013-07-25 10:16:00,
2013-07-25 05:31:00,54.7,48.6,29.21,South,170,4.0,4.0,80,0.00,,---,0.00,VWS V12.08,2013-07-25 10:31:00,
2013-07-25 05:47:00,54.9,49.2,29.21,South,170,2.7,4.0,81,0.00,,---,0.00,VWS V12.08,2013-07-25 10:47:00,
2013-07-25 06:02:00,55.0,49.3,29.21,South,170,2.7,3.1,81,0.00,,---,0.00,VWS V12.08,2013-07-25 11:02:00,
2013-07-25 06:17:00,55.2,50.2,29.21,South,170,3.1,3.6,83,0.00,,---,0.00,VWS V12.08,2013-07-25 11:17:00,
2013-07-25 06:32:00,56.3,51.5,29.21,South,171,4.0,4.0,84,0.00,,---,0.00,VWS V12.08,2013-07-25 11:32:00,
2013-07-25 06:47:00,57.2,52.4,29.21,South,171,0.0,4.0,84,0.00,,---,0.00,VWS V12.08,2013-07-25 11:47:00,
2013-07-25 07:02:00,58.8,55.3,29.21,SSW,197,2.7,5.8,88,0.00,,---,0.00,VWS V12.08,2013-07-25 12:02:00,
2013-07-25 07:17:00,60.8,54.6,29.21,SSW,198,3.1,6.3,80,0.00,,---,0.00,VWS V12.08,2013-07-25 12:17:00,
2013-07-25 07:32:00,61.9,44.6,29.21,SSW,212,3.6,6.3,53,0.00,,---,0.00,VWS V12.08,2013-07-25 12:32:00,
2013-07-25 07:47:00,63.0,44.0,29.21,South,186,2.7,6.3,50,0.00,,---,0.00,VWS V12.08,2013-07-25 12:47:00,
2013-07-25 08:02:00,65.5,42.4,29.21,SSW,208,3.1,5.8,43,0.00,,---,0.00,VWS V12.08,2013-07-25 13:02:00,
2013-07-25 08:17:00,66.4,39.3,29.21,SSW,195,5.8,5.8,37,0.00,,---,0.00,VWS V12.08,2013-07-25 13:17:00,
2013-07-25 08:32:00,67.6,36.8,29.21,SW,218,6.3,8.3,32,0.00,,---,0.00,VWS V12.08,2013-07-25 13:32:00,
2013-07-25 08:46:00,67.6,37.5,29.21,SW,219,8.3,8.7,33,0.00,,---,0.00,VWS V12.08,2013-07-25 13:46:00,
2013-07-25 09:16:00,68.4,35.8,29.21,SW,223,9.6,9.6,30,0.00,,---,0.00,VWS V12.08,2013-07-25 14:16:00,
2013-07-25 09:31:00,68.0,38.6,29.21,SW,224,3.1,9.6,34,0.00,,---,0.00,VWS V12.08,2013-07-25 14:31:00,
2013-07-25 09:46:00,68.5,35.9,29.21,SW,223,4.0,8.1,30,0.00,,---,0.00,VWS V12.08,2013-07-25 14:46:00,
2013-07-25 10:01:00,70.7,38.6,29.21,South,185,4.0,6.7,31,0.00,,---,0.00,VWS V12.08,2013-07-25 15:01:00,
2013-07-25 10:16:00,72.7,37.7,29.21,SW,217,5.8,8.7,28,0.00,,---,0.00,VWS V12.08,2013-07-25 15:16:00,
2013-07-25 10:31:00,73.2,37.3,29.21,SSW,198,8.3,11.0,27,0.00,,---,0.00,VWS V12.08,2013-07-25 15:31:00,
2013-07-25 10:46:00,73.6,37.6,29.21,SW,220,8.1,12.8,27,0.00,,---,0.00,VWS V12.08,2013-07-25 15:46:00,
2013-07-25 11:01:00,74.3,38.2,29.21,SSW,204,9.2,11.0,27,0.00,,---,0.00,VWS V12.08,2013-07-25 16:01:00,
2013-07-25 11:16:00,75.6,39.3,29.21,WSW,241,8.3,9.6,27,0.00,,---,0.00,VWS V12.08,2013-07-25 16:16:00,
2013-07-25 11:31:00,74.3,35.2,29.21,SSW,204,6.3,11.0,24,0.00,,---,0.00,VWS V12.08,2013-07-25 16:31:00,
2013-07-25 11:46:00,74.1,35.1,29.21,SSW,203,3.6,11.9,24,0.00,,---,0.00,VWS V12.08,2013-07-25 16:46:00,